Location: Newark
(42.5441°N, 12.7211°E)
Time: 01:12:49
(UTC+00:00)

Envisat - Visible Passes

Search period start: 07 December 2019 00:00
Search period end: 17 December 2019 00:00
Orbit: 764 x 766 km, 98.1° (Epoch: 06 December)

Date Brightness Start Highest point End Pass type
(mag) Time Alt. Az. Time Alt. Az. Time Alt. Az.
07 Dec 5.8 04:54:52 10° NE 04:58:33 20° E 05:02:13 10° SE visible
07 Dec 3.8 16:09:55 10° SE 16:14:13 29° ENE 16:18:31 10° N visible
07 Dec 4.6 17:48:28 10° SSW 17:53:06 35° W 17:57:46 10° NNW visible
08 Dec 3.1 17:11:08 10° S 17:16:13 79° WSW 17:21:19 10° NNW visible
09 Dec 4.9 05:19:38 10° NNE 05:24:16 34° E 05:28:51 10° SSE visible
09 Dec 3.2 16:34:40 10° SE 16:39:31 48° ENE 16:44:24 10° N visible
09 Dec 5.5 18:15:02 10° SW 18:18:47 21° W 18:22:34 10° NW visible
10 Dec 6.0 04:44:08 10° NE 04:47:10 16° E 04:50:10 10° SE visible
10 Dec 4.1 17:36:55 10° S 17:41:45 45° W 17:46:38 10° NNW visible
11 Dec 3.7 05:44:49 10° NNE 05:49:51 60° E 05:54:52 10° S visible
11 Dec 2.9 16:59:52 10° SSE 17:04:56 83° ENE 17:10:03 10° NNW visible
11 Dec 6.2 18:42:53 10° WSW 18:44:35 12° W 18:46:17 10° WNW visible
12 Dec 5.3 05:08:36 10° NE 05:12:54 27° E 05:17:10 10° SSE visible
12 Dec 3.4 16:23:39 10° SE 16:28:18 38° ENE 16:33:00 10° N visible
12 Dec 5.1 18:03:13 10° SSW 18:07:24 26° W 18:11:38 10° NW visible
13 Dec 6.2 04:33:45 10° ENE 04:35:45 12° E 04:37:43 10° ESE visible
13 Dec 3.6 17:25:28 10° S 17:30:27 57° W 17:35:28 10° NNW visible
14 Dec 4.2 05:33:38 10° NNE 05:38:33 47° E 05:43:25 10° S visible
14 Dec 2.9 16:48:40 10° SSE 16:53:40 66° ENE 16:58:43 10° N visible
14 Dec 5.9 18:30:19 10° SW 18:33:09 15° W 18:36:01 10° NW visible
15 Dec 5.7 04:57:38 10° NE 05:01:32 22° E 05:05:23 10° SE visible
15 Dec 3.7 16:12:41 10° SE 16:17:06 31° ENE 16:21:32 10° N visible
15 Dec 4.7 17:51:31 10° SSW 17:56:03 33° W 18:00:37 10° NNW visible
16 Dec 3.2 05:58:58 10° NNE 06:04:05 82° ESE 06:09:10 10° SSW visible
16 Dec 3.2 17:14:05 10° S 17:19:09 72° WSW 17:24:15 10° NNW visible
